This is the latest recevied weather packets stored in our database for station/object KC7YCE. If no packets are shown the sender has not sent any weather packets the latest 10 day(s).
| Time | Temp. | Humidity | Pressure | Rain* | Wind** | Luminosity | Snow |
|---|---|---|---|---|---|---|---|
| 1777686898 | 7.78° C | 25% | 1023.5 hPa | 0 mm | - | - | - |
| 1777686298 | 7.78° C | 25% | 1023.4 hPa | 0 mm | - | - | - |
| 1777685698 | 8.33° C | 23% | 1023.4 hPa | 0 mm | - | - | - |
| 1777685099 | 8.89° C | 23% | 1023.2 hPa | 0 mm | - | - | - |
| 1777684498 | 8.89° C | 22% | 1023.1 hPa | 0 mm | - | - | - |
| 1777683899 | 9.44° C | 23% | 1023.1 hPa | 0 mm | - | - | - |
| 1777682638 | 10° C | 22% | 1022.9 hPa | 0 mm | - | - | - |
| 1777682038 | 10.56° C | 22% | 1023 hPa | 0 mm | - | - | - |
| 1777681408 | 10.56° C | 24% | 1022.9 hPa | 0 mm | - | - | - |
| 1777680808 | 11.11° C | 23% | 1022.8 hPa | 0 mm | - | - | - |
| 1777680210 | 11.11° C | 24% | 1022.9 hPa | 0 mm | - | - | - |
| 1777679608 | 11.11° C | 24% | 1022.8 hPa | 0 mm | - | - | - |
| 1777678978 | 10.56° C | 24% | 1022.8 hPa | 0 mm | - | - | - |
| 1777678377 | 11.11° C | 25% | 1022.8 hPa | 0 mm | - | - | - |
| 1777677777 | 11.11° C | 24% | 1022.6 hPa | 0 mm | - | - | - |
| 1777676577 | 11.67° C | 27% | 1022.6 hPa | 0 mm | - | - | - |
| 1777675978 | 11.11° C | 24% | 1022.6 hPa | 0 mm | - | - | - |
| 1777675377 | 11.67° C | 24% | 1022.6 hPa | 0 mm | - | - | - |
| 1777674777 | 11.67° C | 24% | 1022.7 hPa | 0 mm | - | - | - |
| 1777673551 | 11.67° C | 23% | 1022.6 hPa | 0 mm | - | - | - |
| 1777672950 | 12.22° C | 26% | 1022.6 hPa | 0 mm | - | - | - |
| 1777671751 | 12.22° C | 22% | 1022.7 hPa | 0 mm | - | - | - |
| 1777671146 | 11.67° C | 21% | 1022.8 hPa | 0 mm | - | - | - |
| 1777670551 | 11.67° C | 23% | 1022.8 hPa | 0 mm | - | - | - |
| 1777669346 | 11.67° C | 20% | 1022.8 hPa | 0 mm | - | - | - |
* Rain latest hour (hover to see other rain measurements)
** Current wind speed in m/s (hover to see current wind gust speed)